Regional Weather Roundup
Issued by NWS

Home | Current Version | Previous Version | Graphics & Text | Print | Product List | Glossary On
Versions: 1 2 3 4 5 6 7 8 9 10 11 12 13 14 15 16 17 18 19 20 21 22 23 24 25 26 27 28 29 30 31 32 33 34 35 36 37 38 39 40 41 42 43 44 45 46 47 48 49 50
402
ASUS43 KBIS 232310
RWRND

NORTH DAKOTA REGIONAL WEATHER ROUNDUP
NATIONAL WEATHER SERVICE BISMARCK ND
600 PM CDT SAT SEP 23 2017

NOTE: "FAIR" INDICATES FEW OR NO CLOUDS BELOW 12,000 FEET WITH NO
SIGNIFICANT WEATHER AND/OR OBSTRUCTIONS TO VISIBILITY.


NDZ001>003-009>011-017-240000-
NORTHWEST NORTH DAKOTA

CITY           SKY/WX    TMP DP  RH WIND       PRES   REMARKS
WILLISTON      CLOUDY    51  39  63 N8        30.12S
MINOT          CLOUDY    53  42  66 N10       30.10S
MINOT AFB      CLOUDY    53  40  63 N7        30.09S
$$

NDZ018>021-031>035-040>046-240000-
SOUTHWEST NORTH DAKOTA

CITY           SKY/WX    TMP DP  RH WIND       PRES   REMARKS
BISMARCK       CLOUDY    57  45  64 N12       30.07S
DICKINSON      LGT RAIN  45  44  97 N7        30.09R
GARRISON         N/A     51  42  71 NE9       30.10R
HETTINGER ARPT CLOUDY    46  43  89 N10       30.07F
$$

NDZ004>008-012>016-024-026-027-054-240000-
NORTHEAST NORTH DAKOTA

CITY           SKY/WX    TMP DP  RH WIND       PRES   REMARKS
GRAND FORKS    CLOUDY    61  50  67 N14       30.04F
GRND FRKS AFB  CLOUDY    59  47  64 N13       30.05F
DEVILS LAKE    CLOUDY    55  45  68 N12       30.10R
$$

NDZ022-023-025-028>030-036>039-047>053-240000-
SOUTHEAST NORTH DAKOTA

CITY           SKY/WX    TMP DP  RH WIND       PRES   REMARKS
FARGO          CLOUDY    60  51  72 N15G23    30.01F
JAMESTOWN      PTSUNNY   58  47  66 NE12      30.03S
$$





USA.gov is the U.S. government's official web portal to all federal, state and local government web resources and services.